Regional Weather Roundup
Issued by NWS

Home | Current Version | Previous Version | Text Only | Print | Product List | Glossary On
Versions: 1 2 3 4 5 6 7 8 9 10 11 12 13 14 15 16 17 18 19 20 21 22 23 24 25 26 27 28 29 30 31 32 33 34 35 36 37 38 39 40 41 42 43 44 45 46 47 48 49 50
000
ASUS43 KTOP 011208
RWRKS

WEATHER ROUNDUP FOR KANSAS
NATIONAL WEATHER SERVICE GOODLAND KS
700 AM CDT SAT AUG 01 2015

NOTE:  "FAIR" INDICATES FEW OR NO CLOUDS BELOW 12,000 FEET WITH NO
SIGNIFICANT WEATHER AND/OR OBSTRUCTIONS TO VISIBILITY.

KSZ001>006-013>018-027>032-041>047-011300-
NORTHWEST KANSAS

CITY           SKY/WX    TMP DP  RH WIND       PRES   REMARKS
GOODLAND       CLEAR     65  60  84 SW12      30.15F
6HR MIN TEMP:  65; 6HR MAX TEMP:  72;

HAYS           CLEAR     66  59  77 W3        30.08F
HILL CITY      CLEAR     67  65  93 S5        30.09F
6HR MIN TEMP:  67; 6HR MAX TEMP:  75;

RUSSELL        CLEAR     68  67  96 SW6       30.07S FOG
6HR MIN TEMP:  68; 6HR MAX TEMP:  74;

$$

KSZ061>065-074>080-084>089-011300-
SOUTHWEST KANSAS

CITY           SKY/WX    TMP DP  RH WIND       PRES   REMARKS
DODGE CITY     FOG       64  64 100 CALM      30.12S VSB 3/4
6HR MIN TEMP:  64; 6HR MAX TEMP:  70;

ELKHART          N/A     66  62  87 S5          N/A
GARDEN CITY    FOG       66  65  96 W5        30.12S VSB<1/4
6HR MIN TEMP:  65; 6HR MAX TEMP:  69;

GREAT BEND     CLEAR     70  64  83 CALM      30.09S
LIBERAL        MOCLDY    68  64  88 CALM      30.12S
PRATT          CLEAR     68  68 100 CALM      30.11S FOG
$$

KSZ066>073-081>083-090>101-011300-
SOUTHEAST KANSAS

CITY           SKY/WX    TMP DP  RH WIND       PRES   REMARKS
CHANUTE        CLEAR     66  66 100 CALM      30.08S FOG
6HR MIN TEMP:  64; 6HR MAX TEMP:  72;

COFFEYVILLE      N/A     64  64 100 E3        30.08S
6HR MIN TEMP:  63; 6HR MAX TEMP:  72;

HUTCHINSON     CLEAR     70  68  93 CALM      30.08S FOG
6HR MIN TEMP:  68; 6HR MAX TEMP:  76;

MEDICINE LODGE   N/A     69  68  96 CALM      30.08S
NEWTON         CLEAR     70  64  83 S5        30.10F
PARSONS        CLEAR     65  65 100 CALM      30.09S
6HR MIN TEMP:  63; 6HR MAX TEMP:  71;

WICHITA INTL   PTCLDY    72  70  93 SE5       30.08S
6HR MIN TEMP:  72; 6HR MAX TEMP:  76;

WICHITA JABRA  FOG       69  68  96 SE5       30.08S VSB 1/4
6HR MIN TEMP:  69; 6HR MAX TEMP:  76;

WICHITA MCCONL CLEAR     72  70  93 SE3       30.08S
WINFIELD       CLEAR     72  71  97 SE3       30.09S FOG
6HR MIN TEMP:  72; 6HR MAX TEMP:  75;

$$

KSZ007>012-019>026-033>040-048>060-102>105-011300-
NORTHEAST KANSAS

CITY           SKY/WX    TMP DP  RH WIND       PRES   REMARKS
CONCORDIA      PTCLDY    72  68  87 SW9       30.06S
6HR MIN TEMP:  67; 6HR MAX TEMP:  72;

EMPORIA        CLEAR     70  69  97 SW5       30.07S FOG
6HR MIN TEMP:  69; 6HR MAX TEMP:  72;

LAWRENCE       CLEAR     69  67  93 CALM      30.05S FOG
6HR MIN TEMP:  67; 6HR MAX TEMP:  70;

MANHATTAN      CLEAR     69  68  96 SW3       30.05S
6HR MIN TEMP:  68; 6HR MAX TEMP:  73;

MARYSVILLE     CLEAR     68  68 100 N5        30.07R FOG
OLATHE IND     CLEAR     71  70  96 S5        30.07S
6HR MIN TEMP:  70; 6HR MAX TEMP:  75;

OLATHE EXE     CLEAR     70  69  97 SW3       30.06S
6HR MIN TEMP:  69; 6HR MAX TEMP:  74;

SALINA         CLEAR     70  67  90 S6        30.07R
6HR MIN TEMP:  69; 6HR MAX TEMP:  77;

TOPEKA BILLARD CLEAR     71  68  90 CALM      30.05S
6HR MIN TEMP:  70; 6HR MAX TEMP:  75;

TOPEKA FORBES  CLEAR     71  67  87 SE3       30.06S
6HR MIN TEMP:  70; 6HR MAX TEMP:  74;

$$


USA.gov is the U.S. government's official web portal to all federal, state and local government web resources and services.